Grand Forks Air Force Base, ND

1:45 PM CDT on September 27, 2016 (GMT -0500)
Grand Forks International

Weather History for KGFK - October, 2012

Change the Weather History Date:

Wednesday, October 17, 2012

  Actual Average Record
Temperature  
Mean Temperature 51 °F 43 °F  
Max Temperature 55 °F 54 °F 79 °F (1945)
Min Temperature 47 °F 32 °F 9 °F (1972)
Degree Days  
Heating Degree Days 14 22  
Month to date heating degree days 352 316  
Since 1 July heating degree days 633 667  
Cooling Degree Days 0 0  
Month to date cooling degree days 0 0  
Year to date cooling degree days 572 378  
Moisture  
Dew Point 47 °F    
Average Humidity 84    
Maximum Humidity 96    
Minimum Humidity 71    
Precipitation  
Precipitation 0.76 in 0.07 in 0.76 in (2012)
Month to date precipitation 1.40 1.18  
Year to date precipitation 15.18 18.46  
Snow  
Snow 0.00 in 0.00 in 1.00 in (1990)
Month to date snowfall 2.7 0.5  
Since 1 July snowfall 2.7 0.5  
Since 1 September snowfall 2.7 0.5  
Snow Depth 0.00 in    
Sea Level Pressure  
Sea Level Pressure 29.11 in    
Wind  
Wind Speed 13 mph (West)    
Max Wind Speed 28 mph    
Max Gust Speed 36 mph    
Visibility 9 miles    
Events Rain    
T = Trace of Precipitation, MM = Missing Value Source: NWS Daily Summary

Daily Weather History Graph

Daily Weather History Graph

Search for Another Location

Airport or City:

Trip Planner

Search our weather history database for the weather conditions in past years. The results will help you decide how hot, cold, wet, or windy it might be!

Date:

Astronomy

Oct. 17, 2012 Rise Set
Actual Time 7:51 AM CDT 6:35 PM CDT
Civil Twilight 7:20 AM CDT 7:06 PM CDT
Nautical Twilight 6:44 AM CDT 7:42 PM CDT
Astronomical Twilight 6:08 AM CDT 8:18 PM CDT
Moon 10:41 AM CDT (10/17) 7:57 PM CDT (10/17)
Length of Visible Light 11h 46m
Length of Day
10h 43m
Waxing Crescent, 7% of the Moon is Illuminated
Oct 17
Waxing Crescent
Oct 21
First Quarter
Oct 29
Full
Nov 6
Last Quarter
Nov 13
New

Hourly Weather History & Observations

Time (CDT) Temp. Dew Point Humidity Pressure Visibility Wind Dir Wind Speed Gust Speed Precip Events Conditions
12:53 AM 54.0 °F 45.0 °F 72% 29.21 in 10.0 mi SSE 8.1 mph - N/A   Overcast
1:53 AM 54.0 °F 45.0 °F 72% 29.20 in 10.0 mi South 8.1 mph - N/A   Overcast
2:53 AM 52.0 °F 46.9 °F 83% 29.20 in 10.0 mi South 6.9 mph - 0.03 in   Overcast
3:53 AM 52.0 °F 46.9 °F 83% 29.16 in 10.0 mi South 4.6 mph - 0.00 in   Overcast
4:53 AM 52.0 °F 48.0 °F 86% 29.15 in 10.0 mi South 3.5 mph - N/A   Overcast
5:53 AM 54.0 °F 51.1 °F 90% 29.15 in 10.0 mi SSW 5.8 mph - N/A   Overcast
6:53 AM 52.0 °F 50.0 °F 93% 29.15 in 10.0 mi SW 4.6 mph - 0.00 in Rain Light Rain
7:53 AM 52.0 °F 50.0 °F 93% 29.13 in 10.0 mi Calm Calm - 0.01 in Rain Light Rain
8:28 AM 51.8 °F 50.0 °F 94% 29.12 in 10.0 mi Calm Calm - 0.00 in Rain Light Rain
8:53 AM 51.1 °F 48.0 °F 89% 29.13 in 10.0 mi WNW 8.1 mph - 0.01 in Rain Light Rain
9:18 AM 51.8 °F 48.2 °F 88% 29.13 in 10.0 mi WNW 5.8 mph - 0.00 in Rain Light Rain
9:53 AM 50.0 °F 48.0 °F 93% 29.13 in 8.0 mi West 6.9 mph - 0.02 in Rain Light Rain
10:53 AM 50.0 °F 48.0 °F 93% 29.13 in 7.0 mi West 10.4 mph - 0.07 in Rain Light Rain
11:53 AM 50.0 °F 48.0 °F 93% 29.10 in 7.0 mi West 10.4 mph - 0.06 in Rain Light Rain
12:11 PM 50.0 °F 46.4 °F 87% 29.09 in 8.0 mi West 11.5 mph - 0.02 in Rain Light Rain
12:31 PM 50.0 °F 48.2 °F 94% 29.09 in 10.0 mi West 12.7 mph - 0.03 in Rain Light Rain
12:53 PM 50.0 °F 48.0 °F 93% 29.09 in 10.0 mi WNW 13.8 mph - 0.04 in Rain Light Rain
1:05 PM 51.8 °F 48.2 °F 88% 29.07 in 10.0 mi WNW 15.0 mph - 0.00 in Rain Light Rain
1:53 PM 51.1 °F 48.0 °F 89% 29.07 in 9.0 mi WNW 13.8 mph - 0.02 in Rain Light Rain
2:53 PM 51.1 °F 48.9 °F 92% 29.06 in 8.0 mi WNW 16.1 mph - 0.04 in Rain Light Rain
3:53 PM 51.1 °F 48.9 °F 92% 29.06 in 5.0 mi WNW 17.3 mph - 0.06 in Rain Rain
4:53 PM 50.0 °F 46.9 °F 89% 29.07 in 7.0 mi WNW 20.7 mph 26.5 mph 0.09 in Rain Light Rain
5:49 PM 48.2 °F 46.4 °F 93% 29.07 in 10.0 mi WNW 23.0 mph 35.7 mph 0.06 in Rain Light Rain
5:53 PM 48.9 °F 46.0 °F 90% 29.08 in 10.0 mi WNW 24.2 mph 34.5 mph 0.06 in Rain Light Rain
6:53 PM 46.9 °F 44.1 °F 90% 29.09 in 10.0 mi WNW 21.9 mph 29.9 mph 0.06 in Rain Light Rain
7:53 PM 46.9 °F 44.1 °F 90% 29.08 in 9.0 mi WNW 23.0 mph 28.8 mph 0.06 in Rain Light Rain
8:53 PM 46.9 °F 45.0 °F 93% 29.07 in 10.0 mi WNW 19.6 mph 28.8 mph 0.03 in Rain Light Rain
9:16 PM 48.2 °F 44.6 °F 87% 29.06 in 10.0 mi WNW 19.6 mph 26.5 mph 0.01 in Rain Light Rain
9:53 PM 48.0 °F 45.0 °F 89% 29.07 in 10.0 mi WNW 17.3 mph 25.3 mph 0.03 in Rain Light Rain
10:53 PM 48.9 °F 46.9 °F 93% 29.08 in 10.0 mi NW 15.0 mph - 0.04 in Rain Light Rain
11:53 PM 50.0 °F 46.9 °F 89% 29.08 in 10.0 mi WNW 18.4 mph 25.3 mph 0.02 in Rain Light Rain